Find Starlink 32798

NORAD ID: 63029 Int'l Des: 2025-034 Owner: SPXS Country: US Constellation: starlink operational
LEOCIRCULAR

Live Position

Loading 3D Globe...

About Starlink 32798

Description loading...

Upcoming Passes

Passes for default location (London). Set your location on the main map for personalized predictions.

Altitude History

Loading altitude history...

Two-Line Element Set

1 63029U 25034A 26105.68793073 -.00007590 00000-0 -24471-3 0 9995
2 63029 53.1593 98.8961 0001626 81.5914 278.5271 15.30155386 64573
Epoch: Apr 15, 2026 • Age: 22 hours

Current Status

Altitude 479.7 km
Velocity 7.63 km/s
Sub-Earth Point 48.00°N, 84.39°E
Launch Date Feb 18, 2025
Age 1.1 years
Type internet

Technical Details

Classification Payload
Mass 730.00 kg
Dry Mass 700.00 kg
Total Mass 730.00 kg
Length 0.30 m
Diameter 4.10 m
Span 29.00 m
Shape Box + pan
Manufacturer SPXS
Bus Type Starlink V2M
Phase Status In Orbit
Owner/State SPXS/US

Most Searched